Wind_Speed
28 27 26 25 24 24 24 22 21 20 20 21 20 21 21 21 21 22 23 23 23 23 23 23 24 24 24 25 27 28 28 29 31 33 34 35 36 38 39 40 38 36 35 34 34 35 37 37 37 37 36 35 34 35 35 35 33 30 29 28 28 27 26 26 26 27 29 30 28
29 28 26 25 25 24 23 22 21 21 20 20 20 21 21 20 21 22 23 23 23 22 22 22 22 23 23 24 26 27 27 28 30 32 34 35 36 37 39 41 40 39 37 35 34 36 39 39 38 37 36 35 34 33 34 34 35 34 32 31 29 28 27 27 28 28 29 29 28
29 28 27 26 26 25 24 22 23 23 21 20 19 20 22 21 21 22 23 24 23 22 21 21 22 22 23 24 25 26 27 27 29 31 33 35 36 37 38 40 41 41 39 37 35 38 40 40 39 38 36 35 34 33 33 35 34 34 34 33 31 29 27 26 27 29 29 29 28
28 28 27 27 27 26 25 24 24 24 22 19 20 22 22 22 21 22 23 23 23 22 21 20 21 22 23 24 25 26 27 27 29 30 31 33 34 36 37 39 40 41 41 39 36 38 41 42 40 38 37 36 34 33 33 34 33 34 34 32 31 31 30 29 28 28 28 29 29
28 28 27 27 27 26 25 25 23 23 22 20 21 22 22 22 22 22 22 23 23 23 22 21 20 21 23 24 25 26 27 27 29 30 30 32 33 34 36 38 40 41 41 40 37 38 41 42 39 36 35 35 34 34 35 34 34 35 34 31 31 32 32 31 30 28 27 28 29
28 28 28 28 27 26 26 24 24 23 23 22 22 22 22 22 22 22 22 22 23 23 23 23 21 21 22 23 24 25 26 27 29 30 30 31 32 34 35 37 39 40 40 40 38 37 40 42 38 35 34 34 35 35 34 34 34 35 34 32 33 33 31 30 30 29 28 28 28
28 28 28 27 27 26 25 24 23 23 23 23 23 23 22 23 22 22 22 21 21 21 22 23 22 22 22 23 23 24 25 26 29 30 31 31 33 33 34 36 38 40 41 41 39 38 39 40 37 35 35 36 34 35 35 34 34 35 35 34 34 32 31 32 31 29 29 29 29
28 28 28 27 27 26 25 25 24 24 24 24 23 24 24 24 23 22 21 22 20 20 21 22 23 23 23 23 23 23 23 25 28 31 32 33 34 35 35 36 37 39 40 41 40 39 38 38 35 35 36 36 34 34 35 36 37 37 36 35 33 32 32 33 32 30 29 29 29
27 27 27 27 27 26 25 25 24 23 23 23 24 24 24 24 24 22 21 21 20 21 21 22 23 23 23 23 23 23 23 24 26 29 32 34 35 35 35 35 36 37 38 40 40 40 38 35 34 35 36 36 35 34 36 37 38 37 36 34 35 33 32 33 33 31 29 28 29
26 26 27 26 26 25 25 24 24 24 23 23 23 23 24 24 24 23 22 21 20 21 22 22 23 23 24 24 24 24 24 24 26 28 30 31 34 35 35 35 35 35 35 38 39 39 37 35 33 33 35 36 35 35 36 38 38 38 37 34 36 37 36 34 34 33 30 29 30
26 26 26 27 26 25 25 24 23 23 24 23 22 23 23 23 23 22 22 21 20 21 22 23 23 24 24 25 25 25 25 26 27 29 30 31 32 34 36 35 35 35 35 37 38 38 37 34 33 34 35 34 35 35 35 36 38 39 38 36 37 37 36 35 34 33 31 31 31
25 25 26 27 26 25 25 24 23 23 23 23 23 23 23 23 22 22 21 21 21 22 23 23 24 24 25 25 25 26 26 27 28 29 31 31 32 34 35 36 36 36 36 37 38 38 37 35 34 34 34 34 33 33 34 34 36 37 37 36 36 37 37 36 35 33 32 33 32
24 24 25 25 25 25 25 24 23 23 23 23 23 22 22 21 21 21 22 22 22 22 23 23 24 25 25 25 25 26 27 28 28 29 30 31 32 33 35 36 36 36 36 37 38 39 38 37 36 35 35 35 34 33 34 33 34 35 35 35 35 36 37 37 35 34 33 33 32
23 24 24 24 25 24 24 23 23 23 23 23 22 21 20 20 20 21 22 22 23 22 22 23 24 25 25 25 25 26 27 28 28 28 29 30 31 32 33 35 36 36 37 37 38 39 39 38 37 37 37 37 36 35 35 35 34 34 34 34 34 35 35 36 36 35 34 34 34
23 23 23 24 24 24 23 23 22 22 22 22 20 19 19 18 19 21 22 22 23 22 22 22 23 24 25 26 26 26 27 28 28 28 28 28 29 30 31 33 34 36 37 37 38 39 39 39 39 38 38 38 37 36 36 37 36 36 35 34 34 34 34 35 36 35 34 35 35
23 23 23 23 23 23 23 22 22 21 20 19 19 18 18 18 19 22 23 22 22 22 21 21 22 23 24 26 26 26 27 28 29 29 28 28 28 29 30 31 33 35 36 37 38 38 39 40 39 39 38 38 38 37 37 38 38 38 37 35 34 34 34 34 35 35 34 35 35
22 22 22 22 23 23 22 22 21 20 19 18 17 17 18 19 21 23 24 23 22 21 20 20 21 22 23 25 26 27 27 28 29 29 29 29 29 29 30 30 32 34 36 37 37 37 38 39 39 38 38 38 38 38 37 38 39 40 39 37 36 35 35 34 35 35 35 35 35
22 22 21 21 22 22 21 21 21 19 18 17 17 18 19 20 22 23 24 23 22 20 19 19 20 21 22 23 24 26 27 27 29 29 30 30 30 30 30 30 31 32 34 35 36 36 36 37 37 37 37 37 38 39 38 38 40 40 40 40 38 37 36 35 35 35 35 35 35
22 21 21 21 21 21 21 20 20 19 18 17 18 19 20 21 22 22 23 23 22 20 19 19 20 21 22 23 23 25 26 27 28 29 29 30 30 30 30 30 30 30 31 32 33 34 34 34 35 36 37 37 38 38 39 39 40 41 42 42 40 39 37 36 35 35 35 36 36
21 21 20 20 20 20 20 20 19 18 17 17 19 19 20 21 21 22 22 22 22 20 18 19 19 20 22 23 23 24 25 26 27 27 28 29 30 30 30 29 29 30 30 30 31 32 33 33 35 36 36 37 38 38 39 40 41 42 43 41 40 39 38 37 36 35 35 36 36
21 20 20 20 20 20 19 19 18 17 17 18 19 20 20 20 21 21 22 21 21 19 18 19 19 20 21 22 22 23 24 25 25 26 27 28 30 30 31 30 29 30 30 30 30 32 33 33 33 33 34 35 36 38 39 40 40 40 40 39 39 39 39 39 38 37 36 36 37
20 20 20 20 20 19 18 18 17 17 18 18 19 19 20 20 20 20 21 20 20 19 19 19 19 20 20 21 22 22 22 23 23 24 26 27 29 30 31 31 30 30 31 31 31 31 31 31 29 29 29 30 31 33 35 37 37 38 38 37 38 39 40 41 40 39 38 38 38
20 19 19 19 19 18 17 17 17 18 18 19 19 19 19 19 19 19 19 19 19 19 19 20 20 20 20 20 21 21 21 22 22 23 24 25 26 28 30 30 30 31 31 31 30 30 29 28 27 26 26 26 26 27 28 29 31 33 34 35 36 38 40 41 42 41 40 39 39
20 20 19 18 18 18 18 18 18 18 19 19 19 19 19 18 18 18 18 18 18 19 19 19 19 20 19 19 20 20 21 21 21 22 22 23 24 26 27 29 29 30 30 30 30 29 28 27 26 26 25 25 24 23 23 24 26 27 29 31 33 35 37 40 41 41 41 40 39
20 20 20 19 19 18 18 18 19 19 19 19 19 19 18 18 17 17 17 17 18 18 18 18 18 18 18 18 19 20 20 20 20 21 21 22 23 24 25 25 26 27 28 28 29 29 29 29 28 27 26 25 24 23 22 22 23 25 26 28 29 31 33 36 38 39 40 39 39
19 20 20 20 20 20 20 20 20 20 19 19 19 18 18 17 16 16 16 17 17 17 17 17 16 16 17 18 18 19 19 19 20 20 20 20 21 21 22 23 24 24 25 26 28 29 30 31 30 29 27 26 24 23 23 22 23 24 25 26 27 27 29 31 34 36 37 37 37
18 19 19 19 20 20 21 21 20 19 19 18 18 18 17 16 16 16 16 17 17 17 17 16 15 16 17 17 17 17 18 18 18 19 19 20 19 19 20 20 21 23 24 26 28 30 31 31 31 30 29 26 25 24 23 23 23 23 24 24 25 25 25 26 28 30 31 31 32
18 18 18 18 19 19 20 20 20 19 18 17 17 17 16 16 16 16 16 16 17 17 16 16 15 16 16 16 16 16 17 17 17 17 18 18 18 19 19 19 20 22 24 26 28 29 30 31 32 32 30 28 25 24 24 23 22 22 23 23 23 22 22 22 23 24 25 25 25
17 18 17 17 17 17 18 19 18 18 17 16 17 16 16 16 16 16 16 16 16 16 16 15 15 15 15 15 15 15 16 16 16 16 17 17 17 18 18 19 19 21 23 26 27 28 29 31 32 32 32 30 27 24 23 23 22 21 21 21 21 21 20 20 20 20 20 21 21
18 18 18 17 16 16 16 17 17 16 16 16 16 16 16 16 16 16 16 16 16 16 16 16 15 14 14 14 14 14 14 15 15 15 16 16 16 17 17 18 18 19 22 24 26 27 28 29 31 32 32 32 29 26 23 22 21 20 19 18 18 18 18 18 18 18 19 20 21
18 19 19 18 16 15 15 15 15 15 16 16 16 17 17 16 16 16 16 16 16 16 16 16 15 15 15 15 14 14 14 14 14 15 15 15 16 16 16 17 17 19 21 23 24 25 26 27 29 30 32 32 30 26 22 20 18 17 15 14 13 14 14 14 15 15 17 18 20
18 19 18 17 16 15 14 14 14 15 16 17 17 18 17 17 16 16 16 15 15 16 16 15 15 15 15 14 14 14 14 14 14 14 14 15 15 15 15 15 16 17 20 21 22 22 24 25 27 28 29 28 26 21 16 14 13 12 12 11 10 10 11 11 12 13 14 16 18
17 18 17 17 16 15 15 15 16 16 17 18 18 18 18 17 16 16 15 15 15 15 16 15 15 15 15 14 14 14 14 14 14 14 14 15 15 14 13 13 15 17 18 19 19 20 22 23 24 25 25 24 22 17 14 14 13 13 12 11 11 11 11 11 12 11 11 12 15
16 16 16 16 16 16 17 18 18 19 19 19 19 18 18 17 16 16 15 15 15 15 15 15 15 15 15 15 14 14 14 14 14 15 15 15 14 13 12 12 14 15 16 16 17 19 21 22 23 23 23 22 19 17 16 16 16 16 15 14 13 12 12 10 10 10 10 10 12
14 15 16 16 17 18 19 20 20 21 21 19 18 18 17 17 16 15 14 15 15 15 15 15 15 14 12 12 11 10 11 12 13 14 15 15 14 13 13 13 13 14 14 15 17 19 21 22 23 23 22 21 19 18 18 19 19 18 18 17 16 14 13 12 10 9 9 10 11
14 14 14 16 17 18 19 20 20 20 20 19 18 17 16 16 15 14 15 16 16 15 14 13 12 10 10 10 9 8 8 8 8 8 9 11 12 13 13 12 12 12 13 14 17 20 21 22 23 23 22 21 20 20 20 21 21 21 20 20 19 18 17 15 14 12 12 12 12
14 14 14 14 16 17 19 19 19 19 18 17 17 16 16 15 15 15 16 17 16 13 12 11 13 14 14 14 12 11 10 9 9 9 9 10 11 12 12 11 10 10 11 12 15 18 20 22 23 23 22 21 22 22 22 22 23 23 23 22 23 22 21 20 18 17 15 14 14
15 14 14 13 14 16 18 18 18 17 16 15 15 15 15 16 16 16 16 16 14 13 15 17 18 18 17 16 15 14 13 13 12 12 12 12 11 11 10 9 9 9 10 11 13 16 18 20 22 22 22 23 23 24 23 23 24 24 25 25 25 25 25 23 23 21 20 18 17
15 15 14 13 13 15 16 17 17 16 15 14 14 15 16 17 16 15 15 15 16 18 19 20 20 19 19 19 18 18 17 17 16 16 15 14 13 11 10 10 10 11 12 14 15 16 18 20 21 22 23 24 25 25 25 25 25 26 26 27 27 27 27 27 26 26 25 24 22
15 15 15 14 13 14 15 16 16 15 14 14 15 16 16 15 15 16 17 18 20 21 22 23 23 22 21 21 20 21 21 21 20 19 18 17 15 14 14 13 13 14 16 18 19 19 20 20 21 22 23 24 26 26 26 26 26 27 27 27 27 27 28 29 29 29 29 28 26
15 15 15 15 14 14 15 15 16 15 15 15 16 16 16 17 19 20 21 22 23 23 24 24 24 23 23 23 22 23 25 25 24 22 22 21 20 19 19 18 18 17 18 19 20 20 21 22 22 23 24 25 26 27 27 26 26 26 26 26 26 27 27 28 29 30 30 30 30
Wind_Direction
197 195 193 189 188 190 192 193 191 190 190 190 190 192 195 198 199 200 201 202 203 203 203 204 204 205 205 202 200 199 199 199 199 200 201 201 200 200 199 197 197 197 197 196 194 192 190 188 186 186 186 184 184 183 184 186 189 189 188 190 195 200 204 205 204 202 200 199 201
195 194 191 189 188 188 190 190 189 189 190 192 192 193 196 199 200 201 201 201 202 202 202 203 204 204 202 199 198 198 199 198 198 199 200 201 201 201 199 198 198 198 198 196 194 192 190 187 185 184 184 184 184 184 185 187 190 192 194 197 201 206 210 210 208 205 201 198 196
192 192 192 192 191 192 192 190 192 193 193 193 192 195 200 201 201 201 201 202 201 201 201 202 203 203 201 199 200 201 202 201 199 199 199 200 201 201 200 199 199 198 198 197 195 193 189 186 183 181 181 183 183 184 186 189 192 194 196 200 204 209 212 213 212 210 206 202 198
190 189 190 190 192 193 194 195 194 194 194 193 196 200 203 202 201 201 201 200 199 199 199 200 200 201 203 203 204 205 205 204 202 201 201 201 201 201 200 200 199 198 198 197 196 192 187 184 181 180 180 181 181 183 187 190 193 195 198 201 205 210 213 214 214 212 209 206 203
188 188 189 191 192 192 194 196 194 193 194 196 199 201 202 203 203 201 199 197 197 199 201 201 199 202 205 207 208 207 207 206 204 203 202 202 201 200 200 200 199 198 198 197 194 189 184 181 180 179 180 180 183 187 191 191 193 196 199 202 206 210 212 214 214 212 209 207 205
187 188 191 195 194 195 197 197 196 194 195 197 199 200 200 201 201 198 195 194 196 200 203 205 203 204 206 208 209 209 208 206 205 204 203 203 201 200 200 199 199 198 196 194 191 186 181 179 178 178 179 182 188 191 193 193 194 197 200 203 206 209 210 209 210 209 207 205 203
188 189 192 194 195 195 195 197 197 196 197 198 199 199 200 201 199 195 193 194 195 199 204 206 206 206 206 206 208 208 208 207 206 205 205 204 202 201 200 199 198 197 194 192 188 184 180 178 177 177 180 184 189 194 196 195 196 198 201 204 207 209 210 210 208 206 205 204 202
192 193 194 195 195 194 194 196 198 198 198 198 198 199 201 202 199 195 193 196 198 201 204 205 206 204 202 202 206 208 208 208 206 205 205 204 203 201 200 198 197 195 193 190 187 184 181 178 177 178 182 187 192 194 196 198 200 202 204 205 206 208 210 211 210 208 205 203 201
195 194 194 194 194 192 192 195 198 198 197 198 199 200 200 200 198 196 195 198 202 204 204 203 203 203 201 200 203 206 208 207 206 204 204 203 202 201 199 197 196 194 191 189 186 184 182 180 179 181 186 192 195 197 198 200 203 205 206 206 208 209 211 212 212 211 208 204 202
190 191 192 192 191 191 192 195 198 199 199 200 200 200 199 195 195 196 198 200 203 204 203 202 202 202 202 202 202 203 205 207 206 205 204 202 201 199 198 197 198 195 191 188 187 186 185 183 183 187 191 196 198 201 203 204 205 206 207 207 209 211 212 212 212 211 209 205 203
189 188 188 189 189 190 192 195 197 199 201 202 202 200 197 193 193 196 199 202 202 203 204 201 200 200 201 201 202 203 204 204 205 205 204 203 201 198 197 196 197 195 191 189 188 188 188 188 189 194 198 200 202 204 205 206 206 206 207 207 209 210 210 210 210 209 208 208 207
191 187 186 189 190 190 192 195 196 198 200 203 203 200 197 193 195 198 201 202 202 203 203 201 198 198 199 200 202 203 203 204 204 203 202 201 200 198 196 196 196 194 191 189 189 189 191 192 194 197 200 202 203 204 205 206 206 206 206 207 208 208 209 210 209 207 206 208 208
190 188 186 187 187 188 190 192 195 198 201 203 201 197 193 194 198 202 203 202 201 202 201 199 199 199 200 200 201 202 203 203 202 201 199 198 197 196 195 195 195 193 191 190 189 190 192 195 197 199 200 201 202 204 205 205 205 205 206 206 207 207 208 208 208 206 205 205 205
190 189 187 185 185 186 189 192 196 200 201 201 197 192 191 195 200 203 203 202 200 199 199 199 199 201 202 202 202 202 202 202 200 197 196 195 195 194 193 194 194 194 192 191 191 192 193 196 198 200 201 202 202 203 204 205 206 206 207 207 207 206 205 205 207 207 207 207 206
190 188 185 183 184 186 188 192 197 199 198 196 192 190 193 198 202 203 202 201 199 197 197 199 200 203 204 204 203 202 201 200 197 194 193 193 192 192 192 194 195 195 195 194 194 194 196 198 200 201 202 202 203 203 204 205 206 208 209 209 208 206 204 203 204 205 205 205 206
190 187 184 181 184 187 191 194 196 197 195 191 190 192 197 201 201 201 200 198 196 195 196 199 202 203 204 203 203 201 199 198 196 193 192 192 192 192 193 195 196 197 197 197 197 198 199 201 202 203 203 203 203 203 203 205 207 208 210 211 209 207 204 202 203 204 204 203 203
188 186 184 183 185 189 191 194 195 194 191 189 191 197 201 202 199 196 194 193 193 194 196 198 201 202 201 201 201 200 198 196 195 193 192 191 193 194 195 196 197 198 199 199 200 200 201 202 203 204 204 204 204 203 204 205 207 209 211 212 211 208 205 203 203 204 204 204 203
186 185 184 184 186 187 189 191 192 191 188 189 196 202 204 202 197 192 190 190 191 193 195 196 198 199 199 198 198 198 197 195 194 194 194 194 196 197 197 197 198 199 199 200 200 201 202 202 203 204 204 204 205 205 205 206 208 209 210 212 211 210 207 204 204 204 205 204 204
185 185 185 185 186 187 188 188 189 188 188 191 199 203 202 200 195 191 189 188 190 193 195 195 195 197 198 198 198 198 197 196 195 195 196 197 198 199 199 199 200 200 200 200 200 201 202 203 204 205 205 205 206 206 207 207 209 210 211 212 211 210 208 205 205 205 205 205 205
184 185 185 185 185 185 186 187 187 186 187 192 199 202 201 198 194 190 188 188 190 194 197 196 195 195 196 197 198 198 197 197 197 197 198 199 199 200 200 200 201 201 203 204 203 203 203 204 206 207 208 208 208 208 208 209 210 211 212 212 210 209 207 205 205 205 206 206 206
183 183 183 184 184 185 185 185 185 186 189 195 199 200 198 195 192 190 188 188 191 195 199 200 197 195 194 195 196 197 198 198 198 200 201 201 201 201 201 202 202 203 205 206 206 206 205 206 206 206 207 207 208 209 211 212 212 212 212 211 209 207 205 204 205 206 208 208 208
181 182 183 183 184 184 183 184 186 190 195 198 199 198 196 193 192 190 188 188 191 196 200 203 200 197 195 194 194 195 197 199 200 203 204 204 204 204 204 204 205 205 206 207 207 207 206 205 204 202 202 203 206 209 212 214 215 214 213 211 209 205 203 203 206 208 210 210 211
181 180 179 180 182 183 184 187 191 195 198 199 197 196 194 191 190 189 189 189 192 196 200 203 202 200 198 196 196 196 198 200 202 205 206 206 206 206 207 207 207 208 208 208 207 206 206 205 204 204 203 204 206 209 211 212 212 212 211 210 208 205 203 203 206 209 212 213 213
182 182 181 181 184 187 190 193 197 198 198 197 196 194 191 189 188 188 189 191 193 196 199 201 201 201 200 200 199 199 200 201 202 204 206 206 206 207 207 208 209 209 209 209 207 206 205 205 207 208 210 210 210 210 209 208 208 207 207 207 207 205 204 205 207 210 212 214 214
184 184 184 186 187 190 193 195 198 197 195 193 191 189 187 186 185 186 188 190 193 196 197 198 199 200 201 202 202 203 203 202 202 203 204 205 206 207 207 208 209 210 210 209 208 208 207 208 208 210 211 212 211 210 208 207 206 205 205 205 205 204 204 205 207 209 211 213 213
183 184 186 188 190 192 194 196 196 194 190 188 186 185 184 184 184 186 187 189 192 195 197 198 198 199 200 202 202 203 203 202 202 202 202 203 204 205 206 207 209 210 210 210 210 210 210 211 211 210 210 209 208 208 207 207 206 204 202 202 201 201 200 201 205 208 209 209 209
181 182 183 184 186 187 189 191 190 187 183 182 182 182 183 184 185 186 187 189 192 195 197 199 198 198 198 200 200 200 200 200 201 202 202 203 203 204 205 206 208 210 211 212 212 212 212 213 213 212 210 208 206 206 206 205 205 203 201 199 198 196 195 195 198 201 202 202 203
180 180 178 176 177 179 180 181 180 178 175 176 180 182 184 186 186 186 188 189 191 193 195 197 196 195 195 196 197 198 198 199 200 202 203 205 205 205 206 207 208 211 213 215 214 214 214 214 215 214 213 210 207 206 206 206 205 203 201 198 197 196 195 194 194 195 196 197 198
182 180 176 169 169 171 173 175 176 176 176 179 185 187 187 186 185 186 187 188 189 190 191 193 191 191 192 195 196 197 198 200 201 203 204 205 206 207 208 208 209 212 215 217 217 217 217 217 217 218 217 214 211 209 208 208 207 205 202 201 199 199 199 199 199 199 200 200 201
182 181 177 172 170 172 176 178 179 181 184 188 190 190 188 185 184 184 186 186 186 187 188 189 189 190 194 199 200 201 202 202 203 204 204 205 206 207 208 208 210 212 216 219 220 219 219 220 220 221 221 220 217 214 212 212 212 211 209 208 208 209 209 209 208 209 210 211 211
181 181 180 179 179 182 184 185 187 188 189 190 191 192 189 184 182 182 183 183 184 185 186 186 189 193 197 202 204 205 204 204 203 203 204 204 204 205 207 207 210 214 218 221 222 222 222 223 224 224 224 222 219 216 216 216 215 213 210 207 207 206 206 205 205 206 208 211 212
182 182 181 182 185 188 190 191 191 190 191 192 193 191 187 182 179 179 181 181 182 183 185 187 191 195 199 202 203 203 203 202 202 202 203 204 203 203 202 201 204 211 218 222 224 225 225 225 224 223 221 217 212 209 205 197 191 187 185 182 182 184 187 190 193 196 198 201 204
182 183 184 185 188 190 191 192 192 192 192 192 190 185 180 176 175 179 182 182 183 185 187 190 193 195 197 198 199 200 201 202 202 202 203 203 202 199 195 192 196 205 214 220 224 224 223 220 217 213 210 206 200 191 179 169 161 156 154 151 154 158 163 169 175 178 183 191 194
182 184 186 187 189 190 191 192 192 192 191 188 182 175 171 171 175 180 184 185 186 188 191 193 195 196 197 198 198 198 199 200 202 203 203 202 199 195 189 186 191 199 206 212 216 216 213 209 205 203 200 196 186 172 158 150 142 137 134 131 132 135 139 143 151 157 162 171 177
180 183 186 187 188 188 188 188 188 187 184 178 170 167 168 173 178 183 186 188 190 191 194 195 196 195 194 193 194 194 194 196 200 203 205 203 196 188 183 185 189 193 197 201 204 204 203 201 200 198 194 184 168 154 144 137 129 125 123 119 118 117 117 119 124 132 139 145 150
180 181 180 180 180 180 179 178 177 176 173 168 165 165 170 176 179 183 186 188 191 193 193 189 183 166 149 145 145 141 142 154 173 183 187 187 180 176 177 181 184 187 190 193 196 198 198 198 198 195 186 171 154 143 136 129 122 118 114 111 106 103 101 100 101 106 112 119 125
180 179 174 168 167 168 168 167 165 164 163 164 166 169 173 178 180 182 184 186 186 181 168 148 134 125 120 119 117 113 110 114 116 120 128 138 148 157 164 168 171 175 181 187 192 195 195 195 195 190 178 160 146 137 130 122 117 112 106 101 96 93 91 90 89 89 92 99 109
181 181 175 165 159 160 161 161 160 159 160 165 170 174 177 179 179 180 182 181 169 147 129 120 117 115 116 116 112 106 102 102 103 105 108 112 119 129 138 143 148 152 160 172 184 190 191 190 189 185 174 157 145 136 127 119 113 107 101 96 91 88 86 85 84 83 85 90 103
181 182 179 171 163 160 161 161 160 160 162 168 174 177 179 179 174 169 165 159 141 127 121 117 114 114 114 113 108 101 96 95 97 98 98 97 99 106 114 116 121 129 140 152 165 175 181 183 183 179 170 157 146 137 129 122 113 106 99 95 91 87 84 83 82 82 83 88 96
183 183 182 178 172 167 165 165 165 165 168 173 177 177 172 164 154 144 136 132 127 123 119 114 111 111 111 110 106 98 91 89 89 90 90 89 91 94 97 96 101 114 129 140 148 155 162 168 172 171 164 154 145 138 131 125 116 106 99 95 92 88 84 82 82 81 81 83 87
182 182 182 181 178 174 171 170 170 173 176 178 174 163 149 136 131 129 126 124 122 119 115 110 108 109 108 106 103 96 89 84 81 82 83 85 85 86 86 86 91 102 117 130 137 141 145 150 155 157 156 149 143 137 132 126 118 109 101 96 94 91 87 84 82 81 79 80 81
Height
677 678 680 681 682 684 686 687 689 690 692 693 695 697 699 700 702 703 704 705 706 708 709 710 712 713 715 715 717 718 720 721 723 724 725 727 729 730 732 734 736 738 740 742 744 745 746 748 749 752 754 756 758 760 762 764 766 768 770 772 775 778 780 781 782 783 784 785 786
675 676 678 680 681 683 685 686 688 689 691 692 694 695 697 699 700 701 703 704 705 706 708 709 710 712 713 714 715 717 718 720 721 722 724 725 727 729 730 732 734 736 738 740 742 743 744 746 748 750 753 755 757 759 760 762 765 767 769 771 774 776 778 779 780 781 782 783 784
673 675 677 679 680 682 684 685 686 688 690 691 693 695 696 698 699 700 701 702 704 705 707 708 709 710 712 713 714 716 717 719 720 721 722 724 725 727 729 730 732 734 736 739 740 741 742 743 745 748 750 752 755 757 759 761 763 765 767 769 772 774 776 778 779 780 780 781 782
672 673 675 677 679 680 682 684 685 687 689 690 692 694 695 696 698 699 700 701 703 704 705 706 708 709 710 712 713 715 716 717 718 720 721 722 724 725 727 728 730 732 734 736 738 739 739 741 743 745 747 749 752 755 757 760 762 763 765 768 770 773 774 775 777 778 779 780 780
670 671 673 675 677 679 681 683 685 686 688 690 691 693 694 695 696 697 698 700 701 702 704 705 706 708 710 711 712 713 715 716 717 718 720 721 723 724 725 727 729 730 732 735 736 737 738 739 741 743 745 747 750 753 756 758 760 762 764 766 769 771 773 774 775 776 777 778 779
668 670 672 675 677 679 680 682 684 685 687 689 690 691 693 694 695 696 697 698 699 701 703 704 705 707 708 710 711 712 714 715 715 717 718 720 721 723 724 726 727 729 731 733 734 735 736 737 739 741 744 746 750 752 754 756 758 760 763 765 767 769 770 772 773 775 775 776 777
667 669 671 674 676 678 680 681 683 685 686 688 689 690 691 692 693 694 695 696 698 700 702 703 704 706 707 708 710 711 712 713 715 716 717 719 720 722 723 725 726 727 729 731 732 734 735 736 737 740 742 746 749 751 753 755 756 759 761 763 765 767 768 770 771 772 773 774 775
667 669 670 673 675 676 678 680 682 684 685 686 687 689 690 691 692 693 694 696 697 699 700 701 703 704 705 707 708 710 711 712 713 715 716 717 719 720 722 724 725 726 727 729 730 732 734 735 736 738 741 744 746 749 750 753 755 757 759 760 762 764 766 767 769 770 771 772 773
666 668 670 672 674 675 677 679 681 682 684 685 686 688 689 690 691 692 693 695 696 698 699 700 701 703 704 705 707 708 710 711 712 713 715 716 717 719 720 722 724 725 726 727 729 731 732 734 735 736 739 742 744 746 748 750 753 755 757 758 760 762 763 765 767 768 769 770 771
665 666 669 671 672 674 676 678 680 681 683 684 685 687 688 689 690 691 692 694 695 697 698 699 700 701 703 704 705 707 708 710 711 712 714 715 716 717 719 721 723 725 726 727 728 730 731 732 733 735 738 740 742 744 746 749 750 752 754 756 758 760 761 763 764 765 766 767 769
663 665 667 669 671 673 675 677 679 681 682 684 685 686 687 687 689 690 691 693 695 696 697 698 699 700 701 703 704 705 707 708 710 711 712 713 715 716 717 719 721 723 724 725 727 729 730 731 732 734 737 739 740 743 745 746 748 750 752 753 755 757 759 760 762 763 764 766 767
663 665 666 668 670 672 675 676 678 680 681 683 684 685 685 686 688 689 690 692 694 695 696 697 698 699 700 701 703 704 705 707 708 709 710 712 713 714 716 717 719 721 722 724 725 727 729 730 731 733 735 737 739 741 743 745 746 748 749 751 753 755 756 758 760 761 762 764 766
662 664 666 668 670 671 674 675 677 679 680 681 683 684 684 685 687 688 690 691 693 694 695 696 697 698 699 700 702 703 704 705 707 708 709 710 712 713 715 716 718 720 721 722 724 725 727 728 730 732 734 735 737 739 741 743 744 746 747 749 750 752 753 755 757 759 760 762 764
662 664 665 667 669 671 673 675 676 678 679 680 681 682 683 685 686 688 689 690 692 693 694 695 696 697 698 700 701 702 703 705 706 707 708 709 711 712 714 715 717 718 720 721 722 724 725 727 728 730 732 733 735 736 739 740 742 744 745 747 748 749 751 752 755 757 759 760 762
662 663 665 666 668 670 672 674 675 677 678 679 680 681 682 684 686 687 689 690 691 692 693 694 695 696 698 699 700 701 702 703 705 706 707 709 710 712 713 715 716 717 718 720 721 722 724 725 726 728 730 731 733 735 737 739 740 742 743 745 746 747 749 750 752 755 756 758 760
661 663 664 666 668 670 671 673 675 676 677 678 679 680 682 684 685 686 688 689 690 691 692 693 695 696 697 698 699 700 701 702 704 705 706 707 709 710 712 714 715 716 717 718 720 721 722 723 725 726 728 730 731 733 735 737 738 740 742 743 744 745 747 748 750 752 754 755 757
661 662 664 665 667 669 670 672 674 675 676 677 678 680 681 683 684 685 686 688 689 690 691 692 694 695 696 697 698 699 700 701 702 704 705 706 707 709 710 712 713 715 716 717 718 719 720 722 723 725 726 728 730 731 733 735 736 738 740 741 743 744 745 746 748 750 752 753 755
660 662 663 665 667 668 670 671 673 674 675 676 678 680 681 683 684 684 685 687 688 689 690 692 693 694 695 696 697 698 699 700 701 702 703 705 706 708 709 710 712 713 714 716 717 718 719 720 722 724 725 727 728 730 731 733 735 736 737 739 740 742 743 745 746 748 750 751 753
660 661 663 665 666 668 669 671 672 673 675 676 678 680 681 682 683 684 685 686 687 689 690 691 692 693 694 695 696 697 698 699 700 701 703 704 705 707 708 709 710 712 713 715 716 717 718 720 721 722 724 725 727 728 730 731 732 733 735 736 738 740 741 743 744 746 748 749 751
659 660 662 664 665 667 669 670 671 673 674 676 678 679 680 681 682 683 684 685 686 688 690 691 692 693 694 695 696 697 698 699 700 701 702 703 705 706 707 708 710 711 712 714 715 716 717 719 720 721 722 724 725 727 728 729 730 731 732 734 735 737 739 741 743 745 746 748 749
658 660 661 663 665 667 668 670 671 672 674 675 677 678 679 680 681 682 683 684 686 688 689 690 691 692 693 694 695 696 697 698 700 700 702 703 704 705 706 707 709 710 711 713 714 715 716 717 719 720 721 722 724 725 726 727 728 729 730 732 734 735 737 739 741 743 745 746 747
657 659 661 663 664 666 668 669 670 672 674 675 676 677 678 680 680 681 683 684 685 687 688 690 690 691 692 693 694 695 697 698 699 700 701 702 703 704 705 706 708 709 710 711 712 714 715 716 718 719 720 721 722 723 724 725 726 728 729 730 732 733 734 736 739 741 742 744 745
657 659 660 662 664 665 667 669 670 672 673 674 675 677 678 679 680 681 682 684 685 686 688 689 690 691 692 693 694 695 696 697 699 700 700 701 702 703 704 705 707 708 709 710 711 712 714 715 716 718 719 720 721 722 723 724 725 726 728 729 730 731 732 734 736 738 740 741 743
656 658 660 661 663 665 666 668 670 671 672 674 675 676 677 678 679 681 682 683 685 686 687 688 689 690 691 692 693 695 695 697 698 699 700 701 702 703 704 705 706 706 707 709 710 711 713 714 715 717 718 719 720 721 722 723 724 725 726 727 729 730 730 732 734 736 738 740 741
655 657 659 660 662 664 666 667 669 670 671 673 674 675 676 678 679 680 681 683 684 685 686 688 689 690 691 692 693 694 695 696 697 698 699 700 701 702 703 704 705 706 706 708 709 710 711 713 715 716 717 718 720 720 721 722 723 724 725 726 727 728 729 730 732 734 736 737 739
655 656 658 660 661 663 665 666 668 669 670 672 673 675 676 677 678 680 681 682 684 685 686 687 688 689 690 691 692 693 694 695 696 697 698 699 700 701 702 703 704 705 706 707 708 709 710 712 713 715 716 717 719 720 721 722 723 723 724 725 726 727 728 729 731 732 734 735 736
654 656 657 659 660 662 664 665 667 668 670 671 673 674 675 677 678 680 681 682 683 685 685 687 688 689 690 691 692 693 694 695 695 696 697 698 700 700 702 703 704 704 705 706 707 708 710 711 712 714 715 716 718 719 720 721 722 723 723 724 725 726 727 728 729 731 732 733 735
654 655 657 658 660 661 663 664 666 668 669 670 672 674 675 676 678 679 680 681 683 684 685 686 687 688 689 690 691 692 693 694 695 696 697 698 699 700 701 702 703 704 704 705 706 708 709 710 711 713 714 715 716 718 719 720 721 722 723 724 725 725 726 727 729 730 731 732 733
654 655 656 658 659 661 662 664 665 667 669 670 672 673 675 676 677 679 680 681 682 683 685 686 687 688 689 690 691 692 693 694 695 695 697 698 699 700 700 701 702 703 703 704 705 707 708 710 711 712 713 714 715 717 718 720 720 721 722 723 724 725 726 727 728 729 730 731 733
653 655 656 657 659 660 662 664 665 667 668 670 672 673 674 675 677 678 679 680 682 683 684 685 686 688 689 690 691 692 693 693 694 695 696 697 698 699 700 701 702 702 703 704 705 706 707 709 710 711 712 713 715 716 717 719 720 721 722 724 725 726 727 728 729 730 730 731 733
653 654 655 657 658 660 661 663 665 666 668 670 671 672 674 675 676 678 679 680 681 682 684 685 686 687 688 690 690 691 692 693 694 695 696 697 697 698 699 700 701 702 702 703 704 705 707 708 709 710 711 712 714 716 717 719 720 721 722 723 724 725 726 727 728 729 730 731 732
652 653 655 656 658 660 661 663 665 666 668 669 670 672 673 675 676 677 679 680 681 682 683 685 686 687 688 689 690 691 692 693 694 695 695 696 697 698 699 700 701 701 702 703 704 705 706 707 708 710 711 713 715 716 718 718 719 720 721 722 723 724 725 726 727 728 729 730 731
651 653 654 656 657 659 661 663 664 666 667 669 670 671 673 674 675 677 678 680 681 682 683 684 685 686 688 689 690 690 691 692 693 694 695 696 697 698 699 700 700 701 701 702 703 705 706 707 709 710 711 712 713 715 715 716 718 719 720 721 722 723 724 725 726 727 728 729 729
651 652 654 655 657 659 660 662 663 665 666 668 669 671 672 674 675 677 678 680 680 682 683 684 685 686 687 688 689 690 691 692 693 694 695 696 697 698 699 699 700 700 701 702 703 705 705 707 708 709 710 711 712 714 715 716 717 719 720 721 722 723 724 725 726 727 727 728 728
650 652 653 654 656 657 659 660 662 664 665 667 668 670 672 673 675 677 678 679 680 681 683 684 685 686 687 688 689 690 691 692 693 694 695 695 697 697 698 699 700 700 701 702 703 704 705 705 706 707 709 710 712 713 714 715 717 719 720 721 722 724 725 725 726 727 727 728 728
650 651 652 653 655 656 658 659 661 663 665 666 668 670 671 673 675 676 678 679 680 681 683 684 685 686 687 687 688 690 690 692 693 694 695 695 696 697 698 699 700 700 701 701 702 703 704 705 705 707 708 710 711 713 715 716 718 719 720 721 723 724 725 726 726 727 728 728 729
650 651 652 653 654 655 657 659 660 662 664 666 667 669 671 673 674 676 677 678 680 681 683 684 684 685 685 687 689 690 691 692 692 693 694 695 696 697 698 699 700 700 701 701 702 702 703 704 705 706 708 710 711 713 715 717 718 720 721 723 724 725 726 726 727 728 729 729 730
649 651 652 653 654 655 657 659 660 662 664 665 667 669 671 672 674 675 677 678 680 681 682 683 684 685 686 688 690 691 692 693 694 694 695 696 697 698 699 700 700 701 701 702 702 703 703 704 705 706 707 709 711 713 715 717 719 720 722 724 725 726 727 728 728 729 730 731 731
649 650 652 653 654 655 657 658 660 661 663 665 667 669 670 672 673 675 676 678 679 680 681 683 685 686 688 689 690 692 693 694 695 695 696 697 698 699 700 700 701 702 703 703 704 704 704 705 705 706 707 709 710 713 715 717 719 721 723 725 726 727 728 729 730 731 732 733 733
649 650 651 653 654 655 657 658 660 661 663 665 667 669 670 672 673 674 675 677 678 680 682 684 685 687 688 689 691 693 694 695 696 696 697 699 700 700 700 701 703 704 705 705 706 706 706 705 705 706 707 709 710 712 715 717 719 722 724 725 727 729 730 731 732 733 734 735 735
648 649 651 652 654 655 656 658 659 661 663 665 667 668 670 671 672 673 675 677 679 681 683 685 686 688 689 690 692 694 695 696 697 698 699 700 700 701 702 703 704 705 706 707 708 708 708 708 707 707 708 709 711 712 714 716 719 722 725 727 728 730 731 733 734 735 736 737 738